Location: Newark
(44.9000°N, 9.6000°E)
Time: 15:39:34
(UTC+00:00)

Envisat - Visible Passes

Search period start: 20 January 2020 00:00
Search period end: 30 January 2020 00:00
Orbit: 764 x 766 km, 98.1° (Epoch: 20 January)

Date Brightness Start Highest point End Pass type
(mag) Time Alt. Az. Time Alt. Az. Time Alt. Az.
20 Jan 3.5 05:58:53 10° NNE 06:03:58 68° ESE 06:09:01 10° S visible
20 Jan 3.2 17:15:13 10° S 17:20:18 78° WSW 17:25:25 10° NNW visible
21 Jan 5.0 05:22:30 10° NNE 05:27:02 31° E 05:31:31 10° SSE visible
21 Jan 3.2 16:38:43 10° SE 16:43:36 50° ENE 16:48:30 10° N visible
21 Jan 5.5 18:19:02 10° SW 18:22:53 22° W 18:26:46 10° NW visible
22 Jan 6.1 04:47:02 10° NE 04:49:54 15° E 04:52:43 10° ESE visible
22 Jan 4.2 17:41:00 10° S 17:45:51 45° W 17:50:44 10° NNW visible
23 Jan 3.9 05:47:39 10° NNE 05:52:39 54° E 05:57:36 10° S visible
23 Jan 3.0 17:03:56 10° SSE 17:09:00 84° ENE 17:14:07 10° NNW visible
23 Jan 6.2 18:46:35 10° WSW 18:48:41 12° W 18:50:47 10° WNW visible
24 Jan 5.4 05:11:28 10° NE 05:15:40 25° E 05:19:50 10° SSE visible
24 Jan 5.2 18:07:13 10° SSW 18:11:29 27° W 18:15:47 10° NW visible
25 Jan 6.3 04:36:43 10° ENE 04:38:27 12° E 04:40:10 10° ESE visible
25 Jan 3.1 06:13:03 10° NNE 06:18:10 89° WNW 06:23:15 10° SSW visible
25 Jan 3.7 17:29:31 10° S 17:34:31 57° W 17:39:32 10° NNW visible
26 Jan 4.4 05:36:28 10° NNE 05:41:19 43° E 05:46:07 10° S visible
26 Jan 3.0 16:52:42 10° SSE 16:57:44 68° ENE 17:02:47 10° N visible
26 Jan 6.0 18:34:12 10° SW 18:37:15 16° W 18:40:18 10° NW visible
27 Jan 5.8 05:00:30 10° NE 05:04:16 20° E 05:07:59 10° SE visible
27 Jan 4.8 17:55:33 10° SSW 18:00:07 33° W 18:04:43 10° NNW visible
28 Jan 3.3 06:01:46 10° NNE 06:06:52 74° ESE 06:11:56 10° S visible
28 Jan 3.3 17:18:08 10° S 17:23:12 72° WSW 17:28:18 10° NNW visible
29 Jan 4.9 05:25:20 10° NNE 05:29:57 34° E 05:34:33 10° SSE visible
29 Jan 5.7 18:22:09 10° SW 18:25:50 20° W 18:29:31 10° NW visible
